| time (UTC) | temp F | wind direction | speed MPH | gust MPH | rain 1hr in | rain 24hr in | rain mn in | humidity % | barometer mb |
| 20260509112704 | 62 | 195 | 1.0 | 4.0 | 0.11 | 0.28 | 0.28 | 100 | 1014.1 |
| 20260509111804 | 62 | 195 | 1.0 | 5.0 | 0.09 | 0.26 | 0.26 | 100 | 1014.1 |
| 20260509110903 | 62 | 216 | 1.0 | 5.0 | 0.08 | 0.24 | 0.24 | 100 | 1014.2 |
| 20260509110004 | 62 | 235 | 2.0 | 8.0 | 0.07 | 0.22 | 0.22 | 100 | 1014.4 |
| 20260509105403 | 62 | 208 | 3.0 | 8.0 | 0.06 | 0.21 | 0.21 | 100 | 1014.5 |
| 20260509104504 | 62 | 223 | 3.0 | 9.0 | 0.04 | 0.18 | 0.18 | 100 | 1014.4 |
| 20260509103603 | 62 | 188 | 2.0 | 5.0 | 0.08 | 0.17 | 0.17 | 100 | 1013.2 |
| 20260509102704 | 62 | 195 | 2.0 | 7.0 | 0.16 | 0.17 | 0.17 | 100 | 1013.1 |
| 20260509101803 | 62 | 195 | 3.0 | 6.0 | 0.17 | 0.17 | 0.17 | 100 | 1013.1 |
| 20260509100903 | 62 | 201 | 2.0 | 5.0 | 0.16 | 0.16 | 0.16 | 100 | 1013.2 |
| 20260509100004 | 62 | 142 | 4.0 | 8.0 | 0.15 | 0.15 | 0.15 | 100 | 1012.2 |
| 20260509095424 | 62 | 145 | 4.0 | 9.0 | 0.15 | 0.15 | 0.15 | 100 | 1012.1 |
| 20260509094504 | 62 | 138 | 3.0 | 9.0 | 0.14 | 0.14 | 0.14 | 100 | 1013.1 |
| 20260509093603 | 62 | 7 | 3.0 | 6.0 | 0.09 | 0.09 | 0.09 | 100 | 1013.8 |
| 20260509092704 | 62 | 311 | 1.0 | 4.0 | 0.01 | 0.01 | 0.01 | 100 | 1015.2 |
| 20260509091803 | 62 | 49 | 0.0 | 1.0 | 0.00 | 0.00 | 0.00 | 100 | 1014.1 |
| 20260509090904 | 61 | 37 | 0.0 | 2.0 | 0.00 | 0.00 | 0.00 | 100 | 1014.0 |
| 20260509090003 | 61 | 55 | 0.0 | 2.0 | 0.00 | 0.00 | 0.00 | 100 | 1014.3 |
| 20260509085403 | 61 | 24 | 0.0 | 2.0 | 0.00 | 0.00 | 0.00 | 100 | 1014.4 |
| 20260509084503 | 61 | 323 | 0.0 | 2.0 | 0.00 | 0.00 | 0.00 | 100 | 1014.8 |
| 20260509083603 | 61 | 291 | 0.0 | 1.0 | 0.00 | 0.00 | 0.00 | 100 | 1014.6 |
| 20260509082703 | 60 | 285 | 0.0 | 2.0 | 0.00 | 0.00 | 0.00 | 99 | 1014.5 |
| 20260509081803 | 60 | 257 | 0.0 | 1.0 | 0.00 | 0.00 | 0.00 | 99 | 1014.0 |
| 20260509080903 | 60 | 0 | 0.0 | 0.0 | 0.00 | 0.00 | 0.00 | 99 | 1013.4 |
| 20260509080003 | 60 | 0 | 0.0 | 0.0 | 0.00 | 0.00 | 0.00 | 99 | 1013.2 |
| 20260509075426 | 60 | 0 | 0.0 | 0.0 | 0.00 | 0.00 | 0.00 | 99 | 1012.9 |
| 20260509074505 | 60 | 0 | 0.0 | 0.0 | 0.00 | 0.00 | 0.00 | 99 | 1012.9 |
| 20260509073605 | 60 | 0 | 0.0 | 0.0 | 0.00 | 0.00 | 0.00 | 99 | 1013.0 |
| 20260509072705 | 60 | 0 | 0.0 | 0.0 | 0.00 | 0.00 | 0.00 | 99 | 1013.1 |
| 20260509071805 | 60 | 0 | 0.0 | 0.0 | 0.00 | 0.00 | 0.00 | 99 | 1013.2 |
| 20260509070905 | 60 | 0 | 0.0 | 0.0 | 0.00 | 0.00 | 0.00 | 99 | 1013.4 |
| 20260509070005 | 60 | 0 | 0.0 | 0.0 | 0.00 | 0.00 | 0.00 | 99 | 1013.3 |
| 20260509065405 | 60 | 0 | 0.0 | 0.0 | 0.00 | 0.00 | 0.00 | 99 | 1013.2 |
| 20260509064505 | 60 | 0 | 0.0 | 0.0 | 0.00 | 0.00 | 0.00 | 99 | 1013.3 |
| 20260509063605 | 60 | 0 | 0.0 | 0.0 | 0.00 | 0.00 | 0.00 | 98 | 1013.4 |
| 20260509062705 | 61 | 0 | 0.0 | 0.0 | 0.00 | 0.00 | 0.00 | 98 | 1013.6 |
| 20260509061805 | 61 | 0 | 0.0 | 0.0 | 0.00 | 0.00 | 0.00 | 98 | 1013.8 |
| 20260509060926 | 60 | 0 | 0.0 | 0.0 | 0.00 | 0.00 | 0.00 | 98 | 1013.6 |
| 20260509060005 | 61 | 0 | 0.0 | 0.0 | 0.00 | 0.00 | 0.00 | 98 | 1013.8 |
| 20260509055405 | 61 | 0 | 0.0 | 0.0 | 0.00 | 0.00 | 0.00 | 98 | 1013.7 |
| 20260509054504 | 61 | 0 | 0.0 | 0.0 | 0.00 | 0.00 | 0.00 | 98 | 1013.6 |
| 20260509053625 | 61 | 132 | 0.0 | 2.0 | 0.00 | 0.00 | 0.00 | 98 | 1013.5 |
| 20260509052704 | 61 | 152 | 1.0 | 3.0 | 0.00 | 0.00 | 0.00 | 98 | 1013.5 |
| 20260509051804 | 60 | 178 | 0.0 | 1.0 | 0.00 | 0.00 | 0.00 | 97 | 1013.7 |
| 20260509050925 | 60 | 178 | 0.0 | 1.0 | 0.00 | 0.00 | 0.00 | 97 | 1013.9 |
| 20260509050004 | 61 | 178 | 0.0 | 1.0 | 0.00 | 0.00 | 0.00 | 97 | 1014.2 |
| 20260509045404 | 61 | 0 | 0.0 | 0.0 | 0.00 | 0.00 | 0.00 | 97 | 1014.2 |
| 20260509044504 | 61 | 178 | 0.0 | 1.0 | 0.00 | 0.00 | 0.00 | 96 | 1014.2 |
| 20260509043625 | 61 | 0 | 0.0 | 0.0 | 0.00 | 0.00 | 0.00 | 96 | 1014.2 |
| 20260509042705 | 61 | 0 | 0.0 | 0.0 | 0.00 | 0.00 | 0.00 | 95 | 1014.0 |
| 20260509041804 | 62 | 0 | 0.0 | 0.0 | 0.00 | 0.00 | 0.00 | 95 | 1014.2 |
| 20260509040904 | 62 | 162 | 1.0 | 3.0 | 0.00 | 0.00 | 0.00 | 95 | 1014.3 |
| 20260509040005 | 62 | 138 | 1.0 | 2.0 | 0.00 | 0.00 | 0.00 | 95 | 1013.8 |
| 20260509035404 | 62 | 120 | 1.0 | 2.0 | 0.00 | 0.00 | 0.00 | 95 | 1014.0 |
| 20260509034504 | 62 | 123 | 0.0 | 2.0 | 0.00 | 0.00 | 0.00 | 95 | 1014.0 |
| 20260509033604 | 62 | 136 | 0.0 | 2.0 | 0.00 | 0.00 | 0.00 | 95 | 1014.3 |
| 20260509032704 | 62 | 0 | 0.0 | 0.0 | 0.00 | 0.00 | 0.00 | 94 | 1014.3 |
| 20260509031804 | 62 | 134 | 1.0 | 3.0 | 0.00 | 0.00 | 0.00 | 95 | 1014.3 |
| 20260509030904 | 62 | 142 | 1.0 | 5.0 | 0.00 | 0.00 | 0.00 | 94 | 1014.2 |
| 20260509030004 | 62 | 142 | 2.0 | 4.0 | 0.00 | 0.00 | 0.00 | 94 | 1014.4 |
| 20260509025404 | 62 | 140 | 2.0 | 5.0 | 0.00 | 0.00 | 0.00 | 94 | 1014.2 |
| 20260509024504 | 62 | 145 | 2.0 | 5.0 | 0.00 | 0.00 | 0.00 | 93 | 1014.5 |
| 20260509023604 | 62 | 155 | 2.0 | 5.0 | 0.00 | 0.00 | 0.00 | 93 | 1014.6 |
| 20260509022704 | 63 | 154 | 3.0 | 6.0 | 0.00 | 0.00 | 0.00 | 93 | 1014.7 |
| 20260509021804 | 63 | 148 | 3.0 | 8.0 | 0.00 | 0.00 | 0.00 | 92 | 1014.3 |
| 20260509020924 | 63 | 142 | 3.0 | 7.0 | 0.00 | 0.00 | 0.00 | 92 | 1014.3 |
| 20260509020004 | 63 | 147 | 3.0 | 6.0 | 0.00 | 0.00 | 0.00 | 91 | 1014.3 |
| 20260509015404 | 63 | 147 | 3.0 | 6.0 | 0.00 | 0.00 | 0.00 | 91 | 1014.4 |
| 20260509014504 | 63 | 140 | 2.0 | 5.0 | 0.00 | 0.00 | 0.00 | 91 | 1014.2 |
| 20260509013604 | 63 | 128 | 1.0 | 4.0 | 0.00 | 0.00 | 0.00 | 92 | 1014.3 |
| 20260509012704 | 63 | 141 | 1.0 | 2.0 | 0.00 | 0.00 | 0.00 | 92 | 1014.7 |
| 20260509011803 | 63 | 130 | 0.0 | 1.0 | 0.00 | 0.00 | 0.00 | 92 | 1014.6 |
| 20260509010904 | 63 | 100 | 1.0 | 3.0 | 0.00 | 0.00 | 0.00 | 92 | 1014.8 |
| 20260509010004 | 63 | 312 | 0.0 | 2.0 | 0.00 | 0.00 | 0.00 | 92 | 1015.1 |
| 20260509005403 | 64 | 353 | 1.0 | 3.0 | 0.00 | 0.00 | 0.00 | 91 | 1014.9 |
| 20260509004525 | 64 | 84 | 0.0 | 1.0 | 0.00 | 0.00 | 0.00 | 91 | 1014.7 |
| 20260509003603 | 64 | 84 | 0.0 | 2.0 | 0.00 | 0.00 | 0.00 | 90 | 1014.5 |
| 20260509002704 | 64 | 95 | 0.0 | 2.0 | 0.00 | 0.00 | 0.00 | 90 | 1014.4 |
| 20260509001825 | 64 | 124 | 1.0 | 3.0 | 0.00 | 0.00 | 0.00 | 90 | 1014.5 |
| 20260509000924 | 64 | 151 | 1.0 | 3.0 | 0.00 | 0.00 | 0.00 | 90 | 1014.5 |
| 20260509000024 | 64 | 170 | 1.0 | 2.0 | 0.00 | 0.00 | 0.00 | 89 | 1014.9 |
| 20260508235404 | 64 | 145 | 2.0 | 6.0 | 0.00 | 0.00 | 0.00 | 88 | 1014.8 |
| 20260508234504 | 64 | 121 | 1.0 | 3.0 | 0.00 | 0.00 | 0.00 | 88 | 1014.8 |
| 20260508233624 | 64 | 134 | 1.0 | 2.0 | 0.00 | 0.00 | 0.00 | 89 | 1015.2 |
| 20260508232704 | 64 | 119 | 2.0 | 4.0 | 0.00 | 0.00 | 0.00 | 89 | 1015.0 |
| 20260508231804 | 64 | 164 | 1.0 | 3.0 | 0.00 | 0.00 | 0.00 | 88 | 1015.3 |
| 20260508230924 | 64 | 186 | 0.0 | 2.0 | 0.00 | 0.00 | 0.00 | 89 | 1015.8 |
| 20260508230003 | 65 | 151 | 1.0 | 3.0 | 0.00 | 0.00 | 0.00 | 87 | 1015.5 |
| 20260508225403 | 65 | 147 | 0.0 | 2.0 | 0.00 | 0.00 | 0.00 | 86 | 1015.4 |
| 20260508224526 | 65 | 145 | 2.0 | 7.0 | 0.00 | 0.00 | 0.00 | 86 | 1015.4 |
| 20260508223605 | 65 | 150 | 2.0 | 7.0 | 0.00 | 0.00 | 0.00 | 86 | 1015.1 |
| 20260508222705 | 65 | 259 | 1.0 | 5.0 | 0.00 | 0.00 | 0.00 | 86 | 1015.9 |
| 20260508221805 | 65 | 151 | 2.0 | 6.0 | 0.00 | 0.00 | 0.00 | 85 | 1015.4 |
| 20260508220926 | 65 | 147 | 0.0 | 1.0 | 0.00 | 0.00 | 0.00 | 87 | 1015.6 |
| 20260508220005 | 65 | 160 | 1.0 | 3.0 | 0.00 | 0.00 | 0.00 | 87 | 1015.5 |
| 20260508215405 | 65 | 185 | 1.0 | 3.0 | 0.00 | 0.00 | 0.00 | 84 | 1015.3 |
| 20260508214505 | 65 | 216 | 0.0 | 1.0 | 0.00 | 0.00 | 0.00 | 84 | 1015.7 |
| 20260508213626 | 65 | 192 | 1.0 | 3.0 | 0.00 | 0.00 | 0.00 | 86 | 1015.9 |
| 20260508212705 | 65 | 290 | 1.0 | 3.0 | 0.00 | 0.00 | 0.00 | 84 | 1016.2 |
| 20260508211805 | 65 | 284 | 1.0 | 2.0 | 0.00 | 0.00 | 0.00 | 83 | 1016.1 |
| 20260508210904 | 65 | 201 | 1.0 | 5.0 | 0.00 | 0.00 | 0.00 | 83 | 1015.8 |
| 20260508210026 | 66 | 146 | 2.0 | 7.0 | 0.00 | 0.00 | 0.00 | 80 | 1015.5 |
| 20260508205405 | 66 | 118 | 1.0 | 5.0 | 0.00 | 0.00 | 0.00 | 81 | 1015.6 |
| 20260508204505 | 66 | 145 | 3.0 | 6.0 | 0.00 | 0.00 | 0.00 | 79 | 1015.6 |
| 20260508203604 | 66 | 192 | 0.0 | 3.0 | 0.00 | 0.00 | 0.00 | 81 | 1016.0 |
| 20260508202726 | 66 | 198 | 1.0 | 2.0 | 0.00 | 0.00 | 0.00 | 77 | 1016.4 |
| 20260508201804 | 66 | 161 | 1.0 | 4.0 | 0.00 | 0.00 | 0.00 | 77 | 1016.2 |
| 20260508200905 | 66 | 157 | 2.0 | 6.0 | 0.00 | 0.00 | 0.00 | 77 | 1016.1 |
| 20260508200004 | 66 | 154 | 3.0 | 7.0 | 0.00 | 0.00 | 0.00 | 78 | 1015.7 |
| 20260508195425 | 67 | 154 | 3.0 | 7.0 | 0.00 | 0.00 | 0.00 | 77 | 1015.8 |
| 20260508194504 | 67 | 143 | 2.0 | 5.0 | 0.00 | 0.00 | 0.00 | 76 | 1016.0 |
| 20260508193604 | 67 | 123 | 3.0 | 7.0 | 0.00 | 0.00 | 0.00 | 75 | 1016.0 |
| 20260508192704 | 67 | 126 | 3.0 | 7.0 | 0.00 | 0.00 | 0.00 | 74 | 1015.9 |
| 20260508191804 | 67 | 140 | 3.0 | 7.0 | 0.00 | 0.00 | 0.00 | 74 | 1016.1 |
| 20260508190904 | 67 | 107 | 4.0 | 7.0 | 0.00 | 0.00 | 0.00 | 73 | 1016.2 |
| 20260508190026 | 67 | 123 | 2.0 | 6.0 | 0.00 | 0.00 | 0.00 | 74 | 1016.5 |
| 20260508185404 | 67 | 130 | 3.0 | 6.0 | 0.00 | 0.00 | 0.00 | 72 | 1016.5 |
| 20260508184504 | 67 | 111 | 2.0 | 4.0 | 0.00 | 0.00 | 0.00 | 73 | 1016.7 |
| 20260508183604 | 67 | 128 | 3.0 | 7.0 | 0.00 | 0.00 | 0.00 | 71 | 1017.2 |
| 20260508182725 | 67 | 110 | 2.0 | 6.0 | 0.00 | 0.00 | 0.00 | 71 | 1017.3 |
| 20260508181825 | 67 | 123 | 3.0 | 7.0 | 0.00 | 0.00 | 0.00 | 71 | 1017.0 |
| 20260508180904 | 67 | 148 | 4.0 | 8.0 | 0.00 | 0.00 | 0.00 | 70 | 1017.2 |
| 20260508180004 | 68 | 107 | 4.0 | 7.0 | 0.00 | 0.00 | 0.00 | 71 | 1017.1 |
| 20260508175425 | 68 | 88 | 3.0 | 7.0 | 0.00 | 0.00 | 0.00 | 70 | 1017.0 |
| 20260508174505 | 67 | 80 | 3.0 | 6.0 | 0.00 | 0.00 | 0.00 | 72 | 1017.2 |
| 20260508173625 | 68 | 96 | 3.0 | 7.0 | 0.00 | 0.00 | 0.00 | 71 | 1017.7 |
| 20260508172725 | 68 | 97 | 3.0 | 7.0 | 0.00 | 0.00 | 0.00 | 71 | 1017.5 |
| 20260508171825 | 68 | 98 | 2.0 | 6.0 | 0.00 | 0.00 | 0.00 | 72 | 1017.5 |
| 20260508170904 | 67 | 49 | 3.0 | 7.0 | 0.00 | 0.00 | 0.00 | 74 | 1017.9 |
| 20260508170025 | 66 | 74 | 3.0 | 7.0 | 0.00 | 0.00 | 0.00 | 73 | 1018.0 |
| 20260508165404 | 66 | 71 | 3.0 | 5.0 | 0.00 | 0.00 | 0.00 | 73 | 1018.2 |
| 20260508164525 | 66 | 78 | 2.0 | 6.0 | 0.00 | 0.00 | 0.00 | 72 | 1018.2 |
| 20260508163604 | 66 | 106 | 4.0 | 7.0 | 0.00 | 0.00 | 0.00 | 73 | 1018.2 |
| 20260508162704 | 66 | 78 | 3.0 | 8.0 | 0.00 | 0.00 | 0.00 | 72 | 1018.3 |
| 20260508161804 | 66 | 86 | 4.0 | 8.0 | 0.00 | 0.00 | 0.00 | 71 | 1018.0 |
| 20260508160924 | 66 | 95 | 3.0 | 9.0 | 0.00 | 0.00 | 0.00 | 72 | 1018.2 |
| 20260508160025 | 66 | 92 | 4.0 | 9.0 | 0.00 | 0.00 | 0.00 | 73 | 1018.2 |
| 20260508155404 | 66 | 77 | 4.0 | 9.0 | 0.00 | 0.00 | 0.00 | 72 | 1018.2 |
| 20260508154504 | 65 | 81 | 4.0 | 9.0 | 0.00 | 0.00 | 0.00 | 72 | 1018.4 |
| 20260508153603 | 65 | 104 | 4.0 | 10.0 | 0.00 | 0.00 | 0.00 | 73 | 1018.6 |
| 20260508152703 | 65 | 99 | 3.0 | 8.0 | 0.00 | 0.00 | 0.00 | 75 | 1018.3 |
| 20260508151803 | 65 | 90 | 4.0 | 8.0 | 0.00 | 0.00 | 0.00 | 75 | 1018.4 |
| 20260508150924 | 65 | 88 | 3.0 | 8.0 | 0.00 | 0.00 | 0.00 | 75 | 1018.5 |
| 20260508150004 | 64 | 91 | 3.0 | 7.0 | 0.00 | 0.00 | 0.00 | 75 | 1018.5 |
| 20260508145403 | 64 | 91 | 3.0 | 7.0 | 0.00 | 0.00 | 0.00 | 75 | 1018.5 |
| 20260508144503 | 64 | 88 | 3.0 | 9.0 | 0.00 | 0.00 | 0.00 | 76 | 1018.9 |
| 20260508143603 | 64 | 90 | 3.0 | 8.0 | 0.00 | 0.00 | 0.00 | 74 | 1019.1 |
| 20260508142704 | 64 | 92 | 3.0 | 8.0 | 0.00 | 0.00 | 0.00 | 75 | 1018.8 |
| 20260508141824 | 64 | 87 | 2.0 | 8.0 | 0.00 | 0.00 | 0.00 | 75 | 1018.8 |
| 20260508140903 | 64 | 100 | 3.0 | 6.0 | 0.00 | 0.00 | 0.00 | 78 | 1018.8 |
| 20260508140004 | 64 | 85 | 2.0 | 4.0 | 0.00 | 0.00 | 0.00 | 80 | 1019.0 |
| 20260508135403 | 64 | 88 | 2.0 | 7.0 | 0.00 | 0.00 | 0.00 | 81 | 1019.2 |
| 20260508134526 | 63 | 108 | 3.0 | 6.0 | 0.00 | 0.00 | 0.00 | 80 | 1019.3 |
| 20260508133626 | 63 | 87 | 2.0 | 7.0 | 0.00 | 0.00 | 0.00 | 81 | 1019.4 |
| 20260508132705 | 63 | 92 | 3.0 | 7.0 | 0.00 | 0.00 | 0.00 | 81 | 1019.4 |
| 20260508131805 | 63 | 119 | 3.0 | 7.0 | 0.00 | 0.00 | 0.00 | 81 | 1019.2 |
| 20260508130905 | 63 | 55 | 2.0 | 5.0 | 0.00 | 0.01 | 0.00 | 84 | 1019.2 |
| 20260508130005 | 63 | 357 | 1.0 | 4.0 | 0.00 | 0.01 | 0.00 | 87 | 1018.9 |
| 20260508125405 | 62 | 345 | 1.0 | 3.0 | 0.00 | 0.01 | 0.00 | 89 | 1018.8 |
| 20260508124505 | 62 | 20 | 0.0 | 2.0 | 0.00 | 0.01 | 0.00 | 90 | 1018.9 |
| 20260508123605 | 61 | 24 | 1.0 | 2.0 | 0.00 | 0.01 | 0.00 | 90 | 1018.6 |
| 20260508122705 | 60 | 16 | 0.0 | 2.0 | 0.00 | 0.01 | 0.00 | 92 | 1018.6 |
| 20260508121805 | 60 | 16 | 0.0 | 2.0 | 0.00 | 0.01 | 0.00 | 92 | 1018.5 |
| 20260508120926 | 60 | 25 | 1.0 | 4.0 | 0.00 | 0.01 | 0.00 | 93 | 1018.5 |
| 20260508120025 | 59 | 25 | 1.0 | 3.0 | 0.00 | 0.01 | 0.00 | 92 | 1018.3 |
| 20260508115426 | 59 | 18 | 0.0 | 2.0 | 0.00 | 0.01 | 0.00 | 93 | 1018.2 |
| 20260508114525 | 59 | 23 | 0.0 | 2.0 | 0.00 | 0.01 | 0.00 | 93 | 1018.1 |
| 20260508113626 | 59 | 23 | 0.0 | 2.0 | 0.00 | 0.01 | 0.00 | 93 | 1018.1 |